Content
SEND FEEDBACK

Daily
Averages
Monthly
Summary
Brazil

MACAE, RIO DE JANEIRO


Home > South America > Brazil > Rio De Janeiro
Elevation: 7 feet     Latitude: 22 21S     Longitude: 041 46W

WEATHER
 
SELECT A DAY
Number of Records: 102,175;   Date Range: 6/30/96 - 10/20/14
 
SHARE

PRINT THIS DATA

[ ← Previous Day ]
WEATHER ALMANAC - JULY 21, 2013
[ Next Day → ]
[ °C ]   °F
Weather ElementAverageHighLow
Temperature78.5 °F96.8 °F (2:00 pm)64.4 °F (6:00 am)
Dewpoint68.2 °F71.6 °F (3:00 pm)60.8 °F (6:00 am)
Humidity74.2 %94 % (1:00 am)37 % (2:00 pm)
Barometer29.89 in29.95 in (8:00 am)29.83 in (1:00 am)
Wind Speed6.2 mph12.7 mph (1:00 am)
Weather ElementAverage
Visibility5 mi
Wind DirectionESE (100.9 °)

Weather ElementTotal
Precipitation---
Cooling Degree Days15.6 (Base 65)
Growing Degree Days30.6 (Base 50)
Averaged from 23 records on July 21, 2013
WEATHER CONDITIONS BREAKOUT
WIND DIRECTION BREAKOUT
WEATHER BY HOUR - JULY 21, 2013
[ °C ]   °F
Local TimeTemperatureDewpointHumidityBarometerVisibilityWind DirectionWind SpeedGust SpeedPrecipitationEventsConditions
1:00 AM71.6 °F69.8 °F94 %29.83 inNE (50°)12.7 mphClear
2:00 AM71.6 °F69.8 °F94 %29.83 inNE (40°)10.4 mphClear
3:00 AM69.8 °F68.0 °F94 %29.83 inNNE (30°)4.6 mphClear
4:00 AM69.8 °F68.0 °F94 %29.83 inEast (80°)4.6 mphClear
5:00 AM69.8 °F68.0 °F94 %29.86 inNE (50°)5.8 mphClear
6:00 AM64.4 °F60.8 °F88 %29.92 inNorth (350°)2.3 mphClear
7:00 AM66.2 °F64.4 °F94 %29.92 inNNE (30°)3.5 mphClear
8:00 AM71.6 °F69.8 °F94 %29.95 inNE (40°)8.1 mphClear
9:00 AM82.4 °F69.8 °F66 %29.92 inNE (50°)2.3 mphClear
10:00 AM86.0 °F68.0 °F55 %29.92 inNE (40°)9.2 mphClear
11:00 AM91.4 °F66.2 °F43 %29.92 inENE (60°)11.5 mphClear
12:00 PM95.0 °F66.2 °F39 %29.89 inENE (60°)8.1 mphClear
1:00 PM95.0 °F66.2 °F39 %29.86 inNorth (360°)5.8 mphClear
2:00 PM96.8 °F66.2 °F37 %29.86 inNorth (10°)4.6 mphClear
3:00 PM89.6 °F71.6 °F55 %29.86 in5.0 miSSW (210°)11.5 mph
4:00 PM86.0 °F69.8 °F58 %29.86 in5.0 miSSW (200°)9.2 mph
5:00 PM80.6 °F68.0 °F65 %29.86 in5.0 miSW (220°)3.5 mph
6:00 PM77.0 °F69.8 °F78 %29.89 in5.0 miESE (120°)3.5 mph
7:00 PM73.4 °F68.0 °F83 %29.89 inEast (100°)2.3 mphClear
8:00 PM77.0 °F69.8 °F78 %29.92 inEast (90°)8.1 mphClear
9:00 PM73.4 °F69.8 °F88 %29.92 inNE (40°)3.5 mphClear
10:00 PM73.4 °F69.8 °F88 %29.92 inNE (50°)3.5 mphClear
11:00 PM73.4 °F69.8 °F88 %29.92 inNE (40°)4.6 mphClear
Hourly data recorded from SBME, located miles away from Macae, Rio De Janeiro







STORIES FROM OUR PARTNERS